Location: Lima
(44.6384°N, 112.5920°W)
Time: 23:51:24
(UTC+00:00)

Max Valier Satellite - Visible Passes

Search period start: 23 April 2024 00:00
Search period end: 03 May 2024 00:00
Orbit: 357 x 364 km, 97.1° (Epoch: 23 April)

Date Brightness Start Highest point End Pass type
(mag) Time Alt. Az. Time Alt. Az. Time Alt. Az.
23 Apr ? 03:12:38 10° S 03:15:24 47° W 03:18:11 10° NNW visible
24 Apr ? 03:42:17 10° SW 03:44:19 18° W 03:46:23 10° NW visible
26 Apr ? 03:07:10 10° S 03:10:00 59° W 03:12:50 10° NNW visible
27 Apr ? 03:35:41 10° SSW 03:37:58 22° W 03:40:17 10° NW visible
29 Apr ? 02:59:03 10° S 03:01:54 84° WSW 03:04:46 10° NNW visible
30 Apr ? 03:26:23 10° SSW 03:28:56 29° W 03:31:30 10° NNW visible
01 May ? 03:54:21 10° WSW 03:55:46 13° W 03:57:10 10° WNW visible
